Startseite
Über Mich
AHP4
Galerie
Sehschlangen
Tourenbuch
Bookmarks
Elektronik
Bewertung
Geschichten
[Tagesmessung] [Jahreswerte] [Information]

Messwerte vom 03.03.2022

Die letzten Messwerte von 23:58:45 Uhr:
KategorieMesswert
Temperatur [°C]1
Luftdruck [mBar]1006
Sonneneinstrahlung0
Wind [km/h]0 aus Nord
Niederschlag [l/m²]0
rel.Luftfeucht.94.8%
CO2 [ppm]419

Diagramme
Messwerte vom 03.03.2022
Tagesaggregation
KategorieMinimumMaximumSchnittSumme
Temperatur [°C]-56-0.9771
Luftdruck [mBar]100510081005.9292
Sonneneinstrahlung23188.3063
Wind [km/h]0
rF [%]68.996.691.19
Niederschlag [l/m²]0
CO2 [ppm]401615511.6
Einordnung alsFrosttag
Kalter Tag

Messungen an benachbarten Tagen: Zur Jahresaggregation 2022
Tabelle aller Messwerte
UhrzeitTemperatur [°C]Luftdruck [mBar]SonneWind [km/h]RichtungRegen [l/m²]rF [%]CO2 [ppm]
00:01:47 -3 1006 0 0 NO 0 86 542
00:04:49 -3 1006 0 0 SO 0 85.5 542
00:07:49 -3 1006 0 0 SO 0 85.4 538
00:10:47 -3 1006 0 0 SO 0 85.2 533
00:13:46 -3 1006 0 0 N 0 85.2 530
00:16:46 -3 1006 0 0 O 0 86.2 536
00:19:48 -3 1006 0 0 SO 0 87.9 530
00:22:47 -3 1006 0 0 SO 0 87.7 536
00:25:50 -3 1006 0 0 SO 0 86.9 539
00:28:50 -3 1006 0 0 SO 0 86.9 545
00:31:47 -3 1006 0 0 SO 0 86.8 541
00:34:49 -3 1006 0 0 SO 0 86.5 538
00:37:48 -3 1006 0 0 SO 0 86.4 532
00:40:47 -3 1006 0 0 SO 0 86.4 527
00:43:48 -3 1006 0 0 SO 0 86.4 521
00:46:47 -3 1006 0 0 SO 0 86.6 524
00:49:48 -3 1006 0 0 NO 0 87.2 524
00:52:47 -3 1006 0 0 NO 0 87.3 522
00:55:46 -3 1006 0 0 NO 0 87.1 527
00:58:49 -4 1006 0 0 NO 0 87 532
01:01:47 -4 1006 0 0 NO 0 86.9 534
01:04:48 -4 1006 0 0 NO 0 87.1 527
01:07:47 -4 1006 0 0 NO 0 87.3 527
01:10:47 -4 1006 0 0 NO 0 87.5 524
01:13:48 -4 1006 0 0 NO 0 87.9 524
01:16:48 -3 1006 0 0 NO 0 88 532
01:19:48 -3 1006 0 0 NO 0 88.4 532
01:22:47 -3 1006 0 0 O 0 89.8 536
01:25:46 -3 1006 0 0 O 0 89.7 533
01:28:44 -3 1006 0 0 O 0 89.4 530
01:31:46 -3 1006 0 0 O 0 89.2 528
01:34:49 -3 1006 0 0 O 0 88.2 534
01:37:46 -4 1006 0 0 O 0 88 539
01:40:49 -4 1006 0 0 SO 0 88 534
01:43:49 -4 1006 0 0 SO 0 88 539
01:46:47 -4 1006 0 0 SO 0 88 533
01:49:47 -4 1006 0 0 SO 0 88 533
01:52:47 -4 1006 0 0 SO 0 87.8 530
01:55:47 -4 1006 0 0 SO 0 87.7 526
01:58:46 -4 1006 0 0 SO 0 87.7 525
02:01:49 -4 1006 0 0 SO 0 88 527
02:04:51 -4 1006 0 0 SO 0 88 530
02:07:48 -4 1006 0 0 SO 0 88 530
02:10:48 -4 1006 0 0 SO 0 88.6 527
02:13:48 -4 1006 0 0 SO 0 89 524
02:16:50 -4 1006 0 0 SO 0 88.5 521
02:19:47 -4 1006 0 0 SO 0 88.3 521
02:22:48 -4 1006 0 0 SO 0 88.1 527
02:25:46 -4 1006 0 0 SO 0 88 533
02:28:46 -4 1006 0 0 SO 0 87.9 527
02:31:49 -4 1006 0 0 SO 0 87.9 518
02:34:48 -4 1006 0 0 SO 0 88 522
02:37:47 -4 1006 0 0 SO 0 88 525
02:40:49 -4 1006 0 0 SO 0 88.1 521
02:43:49 -4 1006 0 0 SO 0 88.4 519
02:46:49 -4 1006 0 0 SO 0 88.6 521
02:49:48 -4 1006 0 0 SO 0 89 527
02:52:46 -4 1006 0 0 SO 0 89 521
02:55:48 -4 1006 0 0 SO 0 89 524
02:58:47 -4 1006 0 0 SO 0 89 521
03:01:47 -4 1006 0 0 SO 0 89 531
03:04:46 -4 1006 0 0 SO 0 89 527
03:07:47 -4 1006 0 0 SO 0 89 527
03:10:49 -5 1006 0 0 SO 0 89.2 527
03:13:47 -5 1006 0 0 SO 0 89.2 524
03:16:48 -5 1006 0 0 SO 0 89.1 527
03:19:47 -4 1006 0 0 SO 0 88.9 524
03:22:47 -4 1006 0 0 O 0 89.3 527
03:25:46 -4 1006 0 0 N 0 89.7 526
03:28:47 -4 1006 0 0 S 0 89.7 527
03:31:48 -4 1006 0 0 S 0 89.6 521
03:34:46 -5 1006 0 0 S 0 89.3 524
03:37:50 -5 1006 0 0 S 0 89.2 522
03:40:49 -5 1006 0 0 S 0 89.1 519
03:43:45 -5 1006 0 0 S 0 89.3 515
03:46:46 -5 1006 0 0 S 0 89.3 512
03:49:48 -5 1005 0 0 S 0 89.2 513
03:52:46 -5 1006 0 0 S 0 89.2 507
03:55:46 -5 1006 0 0 S 0 89.3 518
03:58:48 -5 1006 0 0 S 0 89.5 517
04:01:48 -5 1006 0 0 S 0 89.5 518
04:04:46 -5 1006 0 0 S 0 89.4 521
04:07:49 -5 1006 0 0 S 0 89.4 519
04:10:48 -5 1006 0 0 S 0 89.6 513
04:13:50 -5 1006 0 0 S 0 89.7 521
04:16:48 -5 1006 0 0 NO 0 90 519
04:19:48 -5 1006 0 0 SO 0 90.4 515
04:22:47 -5 1005 0 0 SO 0 90.3 515
04:25:48 -5 1006 0 0 SO 0 90.2 509
04:28:48 -5 1005 0 0 SO 0 90.2 501
04:31:49 -5 1006 0 0 SO 0 90.4 510
04:34:48 -5 1006 0 0 SO 0 90.6 513
04:37:48 -5 1006 0 0 SO 0 90.5 509
04:40:46 -5 1006 0 0 SO 0 90.4 510
04:43:46 -5 1005 0 0 SO 0 90.5 506
04:46:46 -5 1006 0 0 SO 0 90.5 504
04:49:48 -5 1006 0 0 SO 0 90.5 501
04:52:47 -5 1006 0 0 SO 0 90.7 498
04:55:47 -5 1006 0 0 SO 0 90.8 498
04:58:47 -5 1006 0 0 SO 0 90.8 501
05:01:48 -5 1005 0 0 SO 0 90.8 504
05:04:48 -5 1006 0 0 SO 0 90.9 509
05:07:46 -5 1005 0 0 SO 0 90.9 510
05:10:49 -5 1006 0 0 SO 0 90.8 509
05:13:51 -5 1006 0 0 SO 0 90.7 503
05:16:48 -5 1006 0 0 SO 0 90.4 503
05:19:48 -5 1005 0 0 SO 0 90.5 512
05:22:48 -5 1006 0 0 SO 0 90.5 515
05:25:48 -5 1006 0 0 NW 0 91.2 512
05:28:46 -5 1005 0 0 NW 0 91.4 515
05:31:51 -5 1006 0 0 NW 0 91.3 515
05:34:49 -5 1005 0 0 SO 0 91.1 516
05:37:47 -5 1006 0 0 SO 0 91.1 509
05:40:48 -5 1005 0 0 SO 0 91.1 509
05:43:47 -5 1006 0 0 NO 0 91.4 506
05:46:48 -5 1005 0 0 S 0 91.8 492
05:49:48 -5 1006 0 0 S 0 91.9 495
05:52:47 -5 1005 0 0 S 0 91.8 495
05:55:46 -5 1005 0 0 S 0 91.8 501
05:58:47 -5 1006 0 0 S 0 92 501
06:01:48 -5 1006 0 0 S 0 92.3 497
06:04:47 -5 1006 0 0 S 0 92.1 498
06:07:46 -5 1006 0 0 S 0 92.3 506
06:10:48 -5 1006 0 0 S 0 92.6 510
06:13:48 -5 1006 0 0 S 0 92.6 503
06:16:48 -5 1006 0 0 S 0 92.6 499
06:19:46 -5 1006 0 0 S 0 92.5 495
06:22:48 -5 1006 0 0 S 0 92.5 503
06:25:46 -5 1005 0 0 S 0 92.5 500
06:28:48 -5 1006 0 0 S 0 92.4 500
06:31:47 -5 1005 0 0 S 0 92.4 501
06:34:45 -5 1005 3 0 S 0 92.5 500
06:37:47 -5 1005 6 0 S 0 92.8 495
06:40:48 -5 1005 9 0 S 0 93 501
06:43:49 -5 1006 15 0 S 0 93 506
06:46:48 -5 1005 23 0 S 0 92.9 506
06:49:46 -5 1005 34 0 S 0 92.6 504
06:52:49 -5 1005 45 0 S 0 92.5 497
06:55:48 -5 1006 59 0 S 0 92.5 495
06:58:47 -5 1005 72 0 S 0 92.5 497
07:01:48 -5 1005 85 0 S 0 92.7 501
07:04:46 -5 1006 97 0 S 0 93.2 497
07:07:48 -5 1005 108 0 S 0 93.5 495
07:10:52 -5 1005 118 0 S 0 93.8 490
07:13:49 -5 1005 125 0 S 0 93.8 503
07:16:47 -5 1005 133 0 S 0 93.7 515
07:19:48 -5 1006 139 0 S 0 93.5 531
07:22:49 -5 1006 145 0 NO 0 93.8 531
07:25:49 -5 1006 150 0 NO 0 94 545
07:28:49 -5 1005 154 0 NO 0 94.2 545
07:31:49 -5 1006 158 0 NO 0 94.3 539
07:34:46 -5 1005 161 0 NO 0 94.1 536
07:37:49 -5 1005 164 0 SO 0 94 539
07:40:49 -5 1005 166 0 NW 0 94.1 550
07:43:50 -5 1006 169 0 NW 0 94.7 546
07:46:51 -5 1005 171 0 NW 0 95.3 539
07:49:49 -5 1005 173 0 NW 0 95.2 533
07:52:48 -5 1005 174 0 NW 0 94.8 539
07:55:48 -5 1005 176 0 NW 0 94.6 539
07:58:48 -5 1005 177 0 NW 0 94.4 536
08:01:48 -5 1005 178 0 SO 0 94.5 538
08:04:49 -5 1005 179 0 NW 0 94.9 547
08:07:49 -4 1005 180 0 NW 0 95.4 553
08:10:49 -4 1005 181 0 NO 0 96.3 553
08:13:51 -4 1006 182 0 O 0 96.5 558
08:16:48 -4 1006 183 0 N 0 96.3 566
08:19:48 -3 1006 183 0 N 0 96.2 567
08:22:47 -3 1005 184 0 N 0 96 559
08:25:47 -3 1005 185 0 N 0 95.8 559
08:28:47 -3 1006 185 0 N 0 95.7 562
08:31:47 -3 1006 186 0 N 0 95.6 571
08:34:48 -3 1006 186 0 N 0 96 571
08:37:48 -3 1006 187 0 N 0 95.4 567
08:40:49 -3 1006 187 0 N 0 95.2 568
08:43:47 -2 1006 188 0 N 0 94.5 574
08:46:50 -2 1006 188 0 O 0 94.8 565
08:49:47 -2 1006 189 0 N 0 94.9 568
08:52:47 -2 1006 189 0 O 0 95.4 566
08:55:49 -2 1006 189 0 N 0 95.7 571
08:58:48 -1 1006 189 0 N 0 95.6 574
09:01:50 -1 1006 190 0 N 0 95.5 579
09:04:46 -1 1006 190 0 N 0 95.7 572
09:07:49 -1 1006 190 0 NO 0 95.4 576
09:10:49 -1 1006 191 0 N 0 94.9 572
09:13:48 -1 1006 191 0 N 0 94.9 577
09:16:48 -1 1006 192 0 O 0 95.1 577
09:19:49 -1 1006 192 0 NO 0 94.9 583
09:22:49 -1 1006 192 0 N 0 94.6 577
09:25:46 -1 1006 192 0 O 0 94.2 571
09:28:47 0 1005 193 0 N 0 94.1 568
09:31:47 0 1006 193 0 O 0 93.8 542
09:34:48 0 1006 193 0 N 0 93.7 531
09:37:50 0 1005 194 0 N 0 93.6 533
09:40:46 0 1006 194 0 N 0 93.4 542
09:43:49 0 1006 194 0 NO 0 93.2 547
09:46:47 0 1006 195 0 W 0 93.1 553
09:49:46 0 1006 195 0 N 0 92.9 555
09:52:47 0 1006 196 0 NO 0 92.4 557
09:55:49 1 1006 197 0 W 0 91.5 559
09:58:49 1 1006 197 0 N 0 91.1 568
10:01:48 1 1006 198 0 O 0 90.8 573
10:04:50 1 1006 199 0 NO 0 90.5 579
10:07:47 1 1006 200 0 O 0 90.5 580
10:10:49 1 1006 201 0 NO 0 90.6 577
10:13:47 1 1006 201 0 N 0 91 582
10:16:49 1 1006 202 0 N 0 91.2 586
10:19:49 1 1006 202 0 NO 0 91 590
10:22:46 1 1006 203 0 O 0 90.7 585
10:25:47 1 1006 203 0 NO 0 90.3 582
10:28:49 1 1006 204 0 NO 0 90.1 580
10:31:48 1 1006 204 0 SO 0 90 577
10:34:48 2 1006 204 0 SO 0 89.9 579
10:37:48 2 1006 204 0 NW 0 89.7 583
10:40:49 2 1006 205 0 S 0 89.5 588
10:43:48 2 1006 205 0 O 0 89.1 588
10:46:46 2 1006 205 0 O 0 89 597
10:49:47 2 1006 205 0 N 0 88.5 601
10:52:48 2 1006 205 0 0 87.6 600
10:55:47 2 1006 206 0 NO 0 86.9 588
10:58:48 2 1006 206 0 O 0 85.8 597
11:01:48 2 1006 206 0 NW 0 84 606
11:04:49 3 1006 206 0 NW 0 83 615
11:07:47 3 1006 206 0 O 0 82.4 603
11:10:48 3 1006 207 0 N 0 81.8 600
11:13:51 3 1006 207 0 SW 0 81 597
11:16:49 3 1006 207 0 NO 0 80.6 594
11:19:49 3 1006 207 0 O 0 80.4 588
11:22:47 3 1006 207 0 SO 0 81.1 588
11:25:46 3 1006 207 0 N 0 81 594
11:28:48 3 1006 207 0 NO 0 80.8 601
11:31:51 3 1006 207 0 NW 0 80.7 592
11:34:48 3 1006 208 0 N 0 80.1 598
11:37:47 3 1006 208 0 NO 0 79.9 605
11:40:46 4 1006 207 0 N 0 79.3 612
11:43:47 4 1006 207 0 N 0 79 612
11:46:48 4 1006 209 0 NW 0 78.6 611
11:49:49 5 1006 209 0 NW 0 77.6 609
11:52:50 5 1006 209 0 N 0 73.3 615
11:55:48 5 1005 208 0 O 0 72.5 614
11:58:46 5 1006 209 0 N 0 70.7 614
12:01:47 5 1006 210 0 W 0 69.9 615
12:04:46 5 1005 210 0 N 0 69.8 611
12:07:47 5 1006 211 0 NO 0 69.5 601
12:10:48 6 1006 211 0 SO 0 70.3 603
12:13:46 6 1005 212 0 N 0 69.3 592
12:16:48 6 1006 212 0 W 0 69.2 588
12:19:47 6 1005 213 0 N 0 69.5 591
12:22:48 6 1006 213 0 N 0 68.9 600
12:25:49 6 1005 194 0 N 0 69.1 583
12:28:47 6 1006 215 0 O 0 69.1 489
12:31:49 5 1006 216 0 NO 0 72.7 489
12:34:48 5 1006 217 0 NW 0 73.7 566
12:37:46 4 1006 218 0 N 0 75.7 585
12:40:47 4 1006 220 0 NW 0 77.6 571
12:43:47 4 1006 226 0 N 0 79.8 562
12:46:47 4 1005 231 0 NO 0 80.8 557
12:49:47 3 1006 229 0 NO 0 81.9 562
12:52:48 2 1006 225 0 NO 0 85.6 552
12:55:47 2 1006 225 0 O 0 86.4 445
12:58:50 2 1006 226 0 NO 0 88.4 407
13:01:47 2 1006 226 0 O 0 89.1 462
13:04:48 2 1006 226 0 SO 0 89.3 506
13:07:47 2 1006 226 0 NO 0 89.2 506
13:10:48 2 1006 225 0 O 0 88.9 482
13:13:48 2 1006 226 0 O 0 89.6 475
13:16:49 2 1006 226 0 NW 0 90.4 474
13:19:46 2 1006 224 0 0 90.6 477
13:22:47 2 1006 220 0 SW 0 91 483
13:25:48 1 1006 219 0 NO 0 91.1 483
13:28:46 1 1006 218 0 O 0 91.5 487
13:31:47 1 1006 219 0 NO 0 92 491
13:34:49 1 1006 220 0 NO 0 92.2 492
13:37:47 1 1006 217 0 S 0 93 498
13:40:46 1 1006 219 0 NO 0 93.1 503
13:43:47 1 1006 216 0 NO 0 93.1 504
13:46:48 1 1006 218 0 N 0 92.4 501
13:49:48 1 1006 219 0 NO 0 92.3 489
13:52:48 1 1006 221 0 N 0 92.5 480
13:55:48 1 1006 219 0 NW 0 92.5 478
13:58:46 1 1006 218 0 0 92.4 474
14:01:50 1 1005 215 0 NO 0 92.5 477
14:04:47 1 1006 213 0 N 0 93 483
14:07:47 1 1006 215 0 N 0 91.6 495
14:10:46 1 1006 217 0 O 0 91.7 495
14:13:49 1 1005 216 0 NO 0 92.5 501
14:16:50 1 1006 217 0 N 0 92.3 497
14:19:46 1 1006 215 0 SO 0 92.3 498
14:22:49 1 1006 219 0 NW 0 92.1 500
14:25:48 1 1005 224 0 O 0 91.4 512
14:28:46 1 1006 219 0 N 0 91.1 507
14:31:47 1 1005 225 0 N 0 91.8 497
14:34:49 1 1006 226 0 SO 0 91.7 506
14:37:48 1 1006 221 0 N 0 92.2 506
14:40:46 1 1006 218 0 O 0 92.1 519
14:43:47 1 1006 215 0 O 0 93.1 512
14:46:49 1 1006 214 0 NW 0 92.8 511
14:49:50 1 1005 214 0 SO 0 92.6 509
14:52:48 1 1006 217 0 NO 0 92.4 512
14:55:47 1 1006 213 0 N 0 92.5 515
14:58:46 1 1006 210 0 N 0 92.6 515
15:01:50 1 1006 209 0 SO 0 92.2 509
15:04:47 1 1005 210 0 NW 0 91.7 515
15:07:50 1 1006 211 0 NW 0 91.6 518
15:10:49 1 1006 218 0 NW 0 91.5 518
15:13:47 1 1006 219 0 NO 0 91.7 532
15:16:48 1 1006 215 0 O 0 91.9 533
15:19:47 1 1006 213 0 N 0 91.5 538
15:22:48 1 1006 215 0 SO 0 91.3 550
15:25:47 1 1006 217 0 NO 0 90.9 550
15:28:50 1 1006 215 0 NO 0 90.6 544
15:31:48 1 1006 206 0 NW 0 90.8 542
15:34:46 1 1006 202 0 O 0 90.9 541
15:37:47 1 1005 204 0 S 0 90.9 544
15:40:45 1 1006 203 0 W 0 91.1 547
15:43:48 1 1006 205 0 O 0 90.9 550
15:46:46 1 1006 205 0 NO 0 90.4 538
15:49:47 1 1005 203 0 N 0 90.8 541
15:52:47 1 1006 204 0 NO 0 90.9 547
15:55:46 1 1006 202 0 O 0 91 553
15:58:49 1 1005 201 0 NO 0 90.8 550
16:01:47 1 1006 201 0 N 0 90.3 550
16:04:48 1 1006 200 0 NW 0 90.3 551
16:07:50 1 1006 204 0 NW 0 90.2 559
16:10:49 1 1006 207 0 W 0 90.1 556
16:13:47 1 1006 203 0 N 0 90.1 550
16:16:49 1 1006 196 0 NO 0 90.4 544
16:19:46 1 1006 200 0 N 0 90.9 548
16:22:48 1 1006 204 0 NW 0 90.1 540
16:25:48 1 1006 205 0 NO 0 90 548
16:28:48 1 1006 191 0 NO 0 90.1 551
16:31:45 1 1006 181 0 N 0 90.4 556
16:34:47 1 1006 181 0 SO 0 90.4 559
16:37:47 1 1005 178 0 O 0 90.4 565
16:40:46 1 1006 183 0 NO 0 90.5 577
16:43:46 1 1006 178 0 N 0 90.9 575
16:46:48 1 1005 179 0 NO 0 90.9 574
16:49:47 1 1006 175 0 O 0 91.4 568
16:52:48 1 1006 169 0 N 0 91.6 560
16:55:49 1 1005 162 0 SW 0 91.9 559
16:58:47 1 1006 160 0 O 0 91.9 566
17:01:47 1 1006 165 0 SO 0 91.9 565
17:04:47 1 1006 165 0 NO 0 91.9 577
17:07:48 1 1006 159 0 NW 0 92.1 566
17:10:49 1 1006 154 0 W 0 92.1 565
17:13:48 1 1006 151 0 NO 0 92.3 556
17:16:45 1 1006 153 0 O 0 92.2 561
17:19:48 0 1006 151 0 NW 0 92.4 562
17:22:46 0 1006 147 0 O 0 92.8 563
17:25:47 0 1006 130 0 SO 0 92.9 571
17:28:47 0 1006 126 0 NW 0 92.9 573
17:31:49 0 1006 117 0 S 0 92.9 568
17:34:47 0 1006 113 0 S 0 92.8 568
17:37:48 0 1006 100 0 SO 0 92.9 568
17:40:49 0 1006 92 0 NO 0 93.3 573
17:43:46 0 1006 83 0 O 0 93.5 574
17:46:46 0 1006 76 0 N 0 93.9 577
17:49:47 0 1006 63 0 SO 0 94.1 577
17:52:46 0 1006 55 0 N 0 94.4 580
17:55:44 0 1006 45 0 S 0 94.8 571
17:58:47 0 1006 37 0 0 94.9 556
18:01:48 0 1006 29 0 NO 0 95.1 551
18:04:48 0 1006 23 0 NO 0 95.3 550
18:07:50 0 1006 17 0 SO 0 95.5 548
18:10:48 0 1006 11 0 SO 0 95.7 536
18:13:47 0 1006 7 0 NO 0 95.7 527
18:16:49 0 1006 4 0 N 0 95.9 528
18:19:46 0 1006 3 0 NO 0 95.8 525
18:22:46 0 1006 0 0 N 0 95.7 530
18:25:47 0 1006 0 0 SW 0 95.9 536
18:28:46 0 1006 0 0 N 0 96.1 533
18:31:47 0 1006 0 0 NO 0 96.2 527
18:34:48 0 1006 0 0 N 0 96.4 521
18:37:47 0 1006 0 0 SO 0 96.4 521
18:40:47 0 1006 0 0 NO 0 96.3 516
18:43:46 0 1006 0 0 O 0 96.3 507
18:46:45 0 1006 0 0 S 0 96.6 495
18:49:47 0 1006 0 0 SO 0 96.6 477
18:52:47 0 1006 0 0 NW 0 96.6 471
18:55:45 0 1006 0 0 S 0 96.6 474
18:58:47 0 1006 0 0 NO 0 96.6 483
19:01:49 0 1006 0 0 SO 0 96.6 483
19:04:45 0 1006 0 0 N 0 96.6 477
19:07:46 0 1006 0 0 0 96.6 478
19:10:47 0 1006 0 0 NO 0 96.6 478
19:13:47 0 1006 0 0 NO 0 96.6 472
19:16:48 0 1006 0 0 SW 0 96.6 469
19:19:46 0 1006 0 0 SO 0 96.6 462
19:22:46 0 1006 0 0 NO 0 96.6 457
19:25:47 0 1006 0 0 SO 0 96.6 447
19:28:47 0 1006 0 0 SW 0 96.6 451
19:31:47 0 1006 0 0 S 0 96.6 442
19:34:47 0 1006 0 0 NO 0 96.6 425
19:37:48 0 1006 0 0 SW 0 96.6 422
19:40:46 0 1006 0 0 O 0 96.6 415
19:43:46 0 1006 0 0 NO 0 96.6 419
19:46:46 0 1006 0 0 O 0 96.6 427
19:49:48 0 1006 0 0 O 0 96.6 430
19:52:47 0 1006 0 0 NO 0 96.6 424
19:55:47 0 1006 0 0 O 0 96.6 425
19:58:45 0 1006 0 0 N 0 96.6 420
20:01:44 0 1006 0 0 O 0 96.6 415
20:04:48 0 1006 0 0 N 0 96.6 413
20:07:47 0 1006 0 0 SO 0 96.6 415
20:10:47 0 1006 0 0 O 0 96.6 419
20:13:44 0 1006 0 0 0 96.6 416
20:16:46 0 1006 0 0 0 96.6 413
20:19:46 0 1006 0 0 N 0 96.6 404
20:22:46 0 1006 0 0 NO 0 96.6 406
20:25:48 0 1006 0 0 NO 0 96.6 408
20:28:49 0 1006 0 0 NO 0 96.6 407
20:31:47 0 1006 0 0 SO 0 96.6 407
20:34:46 0 1006 0 0 NO 0 96.6 403
20:37:45 0 1007 0 0 S 0 96.6 407
20:40:48 0 1006 0 0 SO 0 96.6 404
20:43:47 0 1006 0 0 NO 0 96.6 404
20:46:48 0 1006 0 0 SO 0 96.6 404
20:49:47 0 1007 0 0 N 0 96.6 404
20:52:49 0 1006 0 0 NW 0 96.6 407
20:55:46 0 1007 0 0 O 0 96.6 404
20:58:48 0 1006 0 0 O 0 96.6 402
21:01:46 0 1006 0 0 NO 0 96.6 407
21:04:47 0 1007 0 0 N 0 96.6 405
21:07:45 0 1006 0 0 O 0 96.6 404
21:10:46 0 1006 0 0 S 0 96.6 407
21:13:47 0 1006 0 0 S 0 96.6 404
21:16:48 0 1007 0 0 NO 0 96.6 406
21:19:48 0 1007 0 0 0 96.6 407
21:22:47 0 1006 0 0 SO 0 96.6 407
21:25:47 0 1006 0 0 SO 0 96.6 401
21:28:46 0 1008 0 0 O 0 96.6 404
21:31:46 0 1006 0 0 O 0 96.6 404
21:34:47 0 1006 0 0 NO 0 96.6 407
21:37:48 0 1007 0 0 SW 0 96.6 405
21:40:48 0 1007 0 0 NO 0 96.6 407
21:43:47 0 1007 0 0 N 0 96.6 401
21:46:45 0 1006 0 0 N 0 96.6 404
21:49:47 0 1007 0 0 N 0 96.5 405
21:52:45 0 1007 0 0 0 96.6 406
21:55:47 0 1006 0 0 SO 0 96.5 405
21:58:46 0 1007 0 0 SO 0 96.4 404
22:01:46 0 1007 0 0 O 0 96.3 404
22:04:47 0 1007 0 0 SO 0 96.3 407
22:07:46 0 1006 0 0 O 0 96.2 407
22:10:46 0 1007 0 0 N 0 96.1 406
22:13:46 0 1007 0 0 O 0 95.8 404
22:16:47 0 1007 0 0 S 0 95.8 407
22:19:45 0 1007 0 0 N 0 95.7 407
22:22:45 0 1007 0 0 N 0 95.7 407
22:25:46 0 1006 0 0 O 0 95.6 407
22:28:46 0 1007 0 0 N 0 95.6 407
22:31:47 0 1007 0 0 N 0 95.6 406
22:34:50 0 1006 0 0 NO 0 95.6 404
22:37:46 0 1006 0 0 NO 0 95.5 407
22:40:45 0 1007 0 0 O 0 95.4 406
22:43:47 0 1007 0 0 SO 0 95.4 407
22:46:46 0 1006 0 0 S 0 95.4 407
22:49:46 1 1007 0 0 O 0 95.3 407
22:52:45 1 1007 0 0 O 0 95.3 407
22:55:46 1 1006 0 0 N 0 95.2 407
22:58:48 1 1006 0 0 NW 0 95.2 407
23:01:47 0 1006 0 0 NO 0 95.3 407
23:04:49 1 1006 0 0 SO 0 95.3 407
23:07:46 0 1006 0 0 O 0 95.2 406
23:10:49 0 1006 0 0 SO 0 95.2 406
23:13:46 0 1006 0 0 N 0 95.2 407
23:16:47 1 1006 0 0 NO 0 95.3 407
23:19:46 1 1006 0 0 SO 0 95.3 404
23:22:49 1 1006 0 0 S 0 95.3 404
23:25:45 1 1006 0 0 O 0 95.2 407
23:28:46 1 1006 0 0 O 0 95.3 410
23:31:45 1 1007 0 0 O 0 95.2 410
23:34:45 1 1006 0 0 N 0 95.1 412
23:37:45 1 1006 0 0 N 0 95.1 407
23:40:45 1 1006 0 0 S 0 95.1 416
23:43:46 1 1006 0 0 NO 0 95.1 424
23:46:46 1 1006 0 0 O 0 95.1 428
23:49:45 1 1006 0 0 S 0 95.1 424
23:52:49 1 1006 0 0 NO 0 94.9 425
23:55:46 1 1006 0 0 S 0 94.8 424
23:58:45 1 1006 0 0 N 0 94.8 419

Letzte Änderung : 22-Jul-2022
Copyright Jens Köhler, Wolfsburg, Obere Dorfstraße 10d